TIME,�g��[���C[MJ/h],����[MJ/h],�Ɩ�[MJ/h],�~�[[MJ/h],�①��[MJ/h],��y���[MJ/h],�Ǝ��q��[MJ/h],���̑�[MJ/h],�����G�l���M�[[MJ/h]
2004/9/1 0:00,0,0,0,0.2104,0.3747,0.04,0.0073,1.1114,0
2004/9/1 0:15,0,0,0,0.7932,0.3904,0.0419,0.0078,1.3687,0
2004/9/1 0:30,0,0,0,0.1264,0.4281,0.0423,0.0076,1.1386,0
2004/9/1 0:45,0,0,0,0.1236,0.4244,0.0425,0.0524,1.2036,0
2004/9/1 1:00,0,0,0,0.1263,0.0904,0.0423,0.0076,1.128,0
2004/9/1 1:15,0,0,0,0.1267,0.4064,0.0429,0.0078,1.3779,0
2004/9/1 1:30,0.3815,0,0,0.1259,0.4368,0.0426,0.0078,0.9213,0
2004/9/1 1:45,0.3489,0,0,0.1231,0.4316,0.0429,0.0078,0.3794,0
2004/9/1 2:00,0.4442,0,0,0.1282,0.4543,0.0432,0.0078,0.3083,0
2004/9/1 2:15,0.4337,0,0,0.1266,0.051,0.0431,0.0078,0.3087,0
2004/9/1 2:30,0.3732,0,0,0.1253,0.4467,0.0433,0.052,0.3031,0
2004/9/1 2:45,0.364,0,0,0.1289,0.4226,0.0429,0.0078,0.3113,0
2004/9/1 3:00,0.4776,0,0,0.1243,0.1709,0.0426,0.0078,0.2928,0
2004/9/1 3:15,0.3648,0,0,0.1273,0.3138,0.0423,0.0076,0.3077,0
2004/9/1 3:30,0.3207,0,0,0.1246,0.4353,0.0428,0.0078,0.3106,0
2004/9/1 3:45,0.4487,0,0,0.1287,0.4183,0.0426,0.0078,0.3123,0
2004/9/1 4:00,0.3275,0,0,0.1269,0.3253,0.0429,0.0078,0.3047,0
2004/9/1 4:15,0.3252,0,0,0.1283,0.5721,0.0431,0.054,0.3182,0
2004/9/1 4:30,0.4257,0,0,0.1266,0.5661,0.0426,0.0078,0.3217,0
2004/9/1 4:45,0.2873,0,0,0.1293,0.5093,0.0426,0.0078,0.3082,0
2004/9/1 5:00,0.2873,0,0,0.1266,0.5498,0.0431,0.0078,0.3149,0
2004/9/1 5:15,0.381,0,0,0.1269,0.5229,0.0426,0.0076,0.3063,0
2004/9/1 5:30,0.2964,0,0,0.1292,0.5005,0.0428,0.0078,0.3144,0
2004/9/1 5:45,0.273,0,0,0.126,0.5105,0.0432,0.0079,0.2997,0
2004/9/1 6:00,0.3057,0,0,0.1282,0.4692,0.0429,0.0078,0.3154,0
2004/9/1 6:15,0.3289,0,0,0.1253,0.4771,0.0429,0.0557,0.3197,0
2004/9/1 6:30,0.2442,0,0,0.1292,0.1446,0.0428,0.0078,0.2994,0
2004/9/1 6:45,0.2552,0,0,0.1289,0.272,0.1584,0.0078,0.3849,0
2004/9/1 7:00,0.2762,0,0,1.4335,0.4405,0.4116,0.0468,1.1229,0
2004/9/1 7:15,0.1655,0,0,1.6089,0.3783,0.4369,0.1849,1.0521,0
2004/9/1 7:30,0.3086,0,0,0.9086,0.0308,0.4117,0.6745,0.9544,0
2004/9/1 7:45,0.2604,0,0,0.5744,0.3937,0.4173,0.592,1.0411,0
2004/9/1 8:00,0.3299,0,0,0.8025,0.3993,0.4185,0.5052,1.0765,0
2004/9/1 8:15,0.3613,0,0,0.1296,0.3872,0.412,0.4821,1.3224,0
2004/9/1 8:30,0.2789,0,0,0.1254,0.4355,0.426,0.0078,0.707,0
2004/9/1 8:45,0.4108,0,0,0.1267,0.3529,0.3825,0.0078,0.4149,0
2004/9/1 9:00,0.5318,0,0,0.1292,0.1244,0.2009,0.0396,0.432,0
2004/9/1 9:15,0.3604,0,0,0.1284,0.4452,0.0428,0.0078,0.4179,0
2004/9/1 9:30,0.5001,0,0,0.1264,0.3466,0.0426,0.0076,0.4108,0
2004/9/1 9:45,0.5747,0,0,0.1244,0.0308,0.0432,0.0078,0.4069,0
2004/9/1 10:00,0.5484,0,0,0.1256,0.3859,0.0429,0.0078,0.2992,0
2004/9/1 10:15,0.6483,0,0,0.128,0.3846,0.0433,0.049,0.2995,0
2004/9/1 10:30,0.883,0,0,0.1289,0.0804,0.0422,0.0078,0.2796,0
2004/9/1 10:45,0.6728,0,0,0.1228,0.3456,0.0423,0.0076,0.2845,0
2004/9/1 11:00,0.9497,0,0,0.5851,0.3879,0.0419,0.0078,0.3051,0
2004/9/1 11:15,0.886,0,0,0.122,0.3898,0.042,0.0078,0.3956,0
2004/9/1 11:30,1.1304,0,0,0.1303,0.267,0.0422,0.0079,0.4281,0
2004/9/1 11:45,1.2845,0,0,0.1233,0.1554,0.2899,0.0076,0.3833,0
2004/9/1 12:00,1.2878,0,0,0.1231,0.4002,0.4176,0.052,0.8718,0
2004/9/1 12:15,1.2928,0,0,0.124,0.2707,0.414,0.0078,1.168,0
2004/9/1 12:30,1.3101,0,0,0.1292,0.1423,0.471,0.0076,0.2925,0
2004/9/1 12:45,1.3169,0,0,0.1215,0.4026,0.2422,0.0078,0.257,0
2004/9/1 13:00,1.3428,0,0,0.1264,0.378,0.0877,0.0076,0.3154,0
2004/9/1 13:15,1.3422,0,0,0.1223,0.4156,0.2238,0.0079,0.6196,0
2004/9/1 13:30,1.3385,0,0,0.1248,0.2586,0.4065,0.0076,0.7358,0
2004/9/1 13:45,1.3372,0,0,0.1218,0.177,0.3195,0.0488,0.7059,0
2004/9/1 14:00,1.328,0,0,0.1266,0.4048,0.0428,0.0076,1.0076,0
2004/9/1 14:15,1.9155,0,0,0.1225,0.3727,0.0428,0.0078,0.7655,0
2004/9/1 14:30,4.4951,0,0,0.124,0.4254,0.0428,0.0078,0.7819,0
2004/9/1 14:45,5.4703,0,0,0.1237,0.319,0.0426,0.0078,0.7151,0
2004/9/1 15:00,5.413,0,0,0.1263,0.1562,0.0425,0.0076,0.7952,0
2004/9/1 15:15,4.9663,0,0,0.1261,0.4454,0.2604,0.0078,0.8556,0
2004/9/1 15:30,3.7326,0,0,0.1211,0.3087,0.361,0.0461,0.7187,0
2004/9/1 15:45,3.7598,0,0,0.1261,0.1765,0.3635,0.0076,0.7178,0
2004/9/1 16:00,3.7781,0,0,0.1225,0.4468,0.3679,0.0079,0.8898,0
2004/9/1 16:15,3.712,0,0,0.1266,0.4146,0.3819,0.0076,0.8758,0
2004/9/1 16:30,3.5512,0,0,0.1218,0.4576,0.381,0.0078,0.8772,0
2004/9/1 16:45,3.3585,0,0,0.1224,0.3329,0.3809,0.0076,0.8657,0
2004/9/1 17:00,3.0992,0,0,0.1241,0.1793,0.2287,0.0482,0.8508,0
2004/9/1 17:15,3.167,0,0,0.1241,0.4447,0.0428,0.0078,0.7309,0
2004/9/1 17:30,2.9105,0,0,0.1241,0.2949,0.0425,0.0076,0.9138,0
2004/9/1 17:45,2.7196,0,0,0.1251,0.1777,0.0425,0.0078,0.383,0
2004/9/1 18:00,2.6915,0,0,0.124,0.4025,0.0428,0.0076,0.488,0
2004/9/1 18:15,2.7059,0,0,0.1261,0.2883,0.0422,0.0078,0.8617,0
2004/9/1 18:30,2.6771,0,0,1.3887,0.1496,0.0422,0.0076,0.8562,0
2004/9/1 18:45,2.6342,0,0,1.202,0.3999,0.0426,0.0078,0.9861,0
2004/9/1 19:00,2.5763,0,0,0.3289,0.3531,0.0428,0.0523,0.9252,0
2004/9/1 19:15,2.561,0,0,0.3142,0.1073,0.0586,0.0076,1.4257,0
2004/9/1 19:30,2.3548,0,0,2.4761,0.4635,0.0436,0.0078,1.3749,0
2004/9/1 19:45,2.5219,0,0,2.6436,0.4437,0.0425,0.1548,1.5137,0
2004/9/1 20:00,2.3275,0,0,0.5406,0.4677,0.0431,0.0076,1.4731,0
2004/9/1 20:15,2.5135,0,0,0.1519,0.4856,0.0429,0.0078,1.3689,0
2004/9/1 20:30,2.2709,0,0,0.149,0.4994,0.0431,0.0078,1.3748,0
2004/9/1 20:45,2.4898,0,0,0.1446,0.5119,0.0429,0.0078,1.5746,0
2004/9/1 21:00,2.4136,0,0,0.1449,0.4945,0.0432,0.0518,1.7767,0
2004/9/1 21:15,2.3953,0,0,0.1413,0.4962,0.0628,0.0078,1.6147,0
2004/9/1 21:30,2.3262,0,0,0.1678,0.1531,0.2766,0.0078,1.6065,0
2004/9/1 21:45,2.3753,0,0,0.1711,0.3524,0.1776,0.0078,1.495,0
2004/9/1 22:00,2.2036,0,0,0.1754,0.447,0.0423,0.0076,1.4471,0
2004/9/1 22:15,2.352,0,0,0.1752,0.4167,0.0423,0.0078,2.4,0
2004/9/1 22:30,2.2334,0,0,0.182,0.4704,0.0423,0.0076,1.5921,0
2004/9/1 22:45,2.2434,0,0,0.1773,0.2297,0.0425,0.0552,1.1632,0
2004/9/1 23:00,2.2877,0,0,0.1793,0.275,0.042,0.0076,1.1753,0
2004/9/1 23:15,2.1429,0,0,0.1777,0.4373,0.0429,0.0078,1.1605,0
2004/9/1 23:30,2.1718,0,0,0.1873,0.1996,0.0419,0.0078,1.4132,0
2004/9/1 23:45,2.2306,0,0,0.1791,0.2953,0.2655,0.0078,1.0378,0
2004/9/2 0:00,2.2098,0,0,0.1824,0.456,0.4042,0.0076,0.9989,0
2004/9/2 0:15,2.1298,0,0,0.177,0.4216,0.4176,0.0078,1.2918,0
2004/9/2 0:30,2.1393,0,0,2.0537,0.4755,0.4244,0.0078,0.9972,0
2004/9/2 0:45,2.1685,0,0,0.0749,0.4527,0.248,0.0572,1.328,0
2004/9/2 1:00,2.1253,0,0,0.1027,0.22,0.0425,0.0078,0.3646,0
2004/9/2 1:15,2.1113,0,0,0.1316,0.301,0.0428,0.0078,0.302,0
2004/9/2 1:30,2.0413,0,0,0.1702,0.445,0.0431,0.0078,0.3599,0
2004/9/2 1:45,2.0385,0,0,0.1777,0.2154,0.0423,0.0076,0.3167,0
2004/9/2 2:00,2.071,0,0,0.1849,0.2519,0.0432,0.0078,0.3023,0
2004/9/2 2:15,2.0729,0,0,0.3378,0.3947,0.0431,0.0079,0.6247,0
2004/9/2 2:30,2.0667,0,0,0.4065,0.3084,0.0431,0.0078,0.9145,0
2004/9/2 2:45,2.0588,0,0,0.217,0.1496,0.0431,0.0518,0.2824,0
2004/9/2 3:00,2.0798,0,0,0.1603,0.4041,0.0433,0.0079,0.4281,0
2004/9/2 3:15,2.0532,0,0,0.1987,0.3914,0.0436,0.0078,0.2814,0
2004/9/2 3:30,2.0228,0,0,0.214,0.4101,0.0428,0.0078,0.4052,0
2004/9/2 3:45,1.6654,0,0,0.2143,0.3606,0.0426,0.0078,0.383,0
2004/9/2 4:00,1.3261,0,0,0.2112,0.4827,0.0423,0.0078,0.48,0
2004/9/2 4:15,1.5777,0,0,0.2209,0.5612,0.0428,0.0078,0.4631,0
2004/9/2 4:30,1.0696,0,0,0.2157,0.5076,0.0426,0.051,0.3516,0
2004/9/2 4:45,1.2567,0,0,0.2151,0.5721,0.0428,0.0078,0.3885,0
2004/9/2 5:00,0.9642,0,0,0.2118,0.5399,0.0428,0.0078,0.2897,0
2004/9/2 5:15,0.8509,0,0,0.2123,0.5105,0.0429,0.0078,0.3066,0
2004/9/2 5:30,0.7871,0,0,0.2177,0.5183,0.0428,0.0078,0.294,0
2004/9/2 5:45,0.8901,0,0,0.214,0.4922,0.0429,0.0078,0.2739,0
2004/9/2 6:00,0.8672,0,0,0.22,0.5004,0.0432,0.0078,0.2677,0
2004/9/2 6:15,0.6996,0,0,0.2169,0.4785,0.0428,0.057,0.2871,0
2004/9/2 6:30,0.8254,0,0,0.211,0.1535,0.0426,0.0078,0.2845,0
2004/9/2 6:45,1.5231,0,0,0.2223,0.3135,0.0468,0.0078,0.2539,0
2004/9/2 7:00,1.563,0,0,0.214,0.4398,0.4193,0.0816,0.8495,0
2004/9/2 7:15,1.9047,0,0,2.59,0.2995,0.4277,0.0079,1.0777,0
2004/9/2 7:30,1.8901,0,0,3.0348,0.1354,0.4126,0.3574,1.1222,0
2004/9/2 7:45,1.9596,0,0,0.2177,0.4085,0.4152,0.5957,1.0044,0
2004/9/2 8:00,2.0186,0,0,0.7194,0.3889,0.4176,0.5628,0.9338,0
2004/9/2 8:15,2.0474,0,0,0.1768,0.4048,0.411,0.3419,1.3179,0
2004/9/2 8:30,0.9073,0,0,0.1467,0.4215,0.4232,0.0079,1.0953,0
2004/9/2 8:45,0.4612,0,0,0.1542,0.1103,0.3848,0.0078,0.5027,0
2004/9/2 9:00,0.5481,0,0,0.1787,0.3902,0.1053,0.0384,0.4317,0
2004/9/2 9:15,0.5229,0,0,0.1827,0.43,0.0425,0.0078,0.4114,0
2004/9/2 9:30,0.5125,0,0,0.1823,0.0824,0.0422,0.0076,0.4481,0
2004/9/2 9:45,0.0782,0,0,0.1848,0.3584,0.0426,0.0078,0.4656,0
2004/9/2 10:00,0,0,0,0.1829,0.3865,0.0426,0.174,0.3408,0
2004/9/2 10:15,0,0,0,0.1781,0.0992,0.0425,0.0508,0.3933,0
2004/9/2 10:30,0,0,0,0.1819,0.3689,0.0423,0.0078,0.3296,0
2004/9/2 10:45,0,0,0,0.1881,0.3889,0.0422,0.0078,0.2628,0
2004/9/2 11:00,0,0,0,0.1734,0.3892,0.0423,0.0076,0.3351,0
2004/9/2 11:15,0,0,0,0.1794,0.4228,0.0433,0.0078,0.3171,0
2004/9/2 11:30,0,0,0,0.609,0.0543,0.0433,0.0078,0.2907,0
2004/9/2 11:45,0,0,0,0.1264,0.4595,0.0429,0.0078,0.2801,0
2004/9/2 12:00,0,0,0,0.1246,0.4307,0.0431,0.0544,0.3465,0
2004/9/2 12:15,0,0,0,0.1237,0.4432,0.0514,0.0078,0.2818,0
2004/9/2 12:30,0,0,0,0.1254,0.4042,0.0423,0.0076,0.2568,0
2004/9/2 12:45,0,0,0,0.1283,0.1119,0.0418,0.0078,0.2572,0
2004/9/2 13:00,0,0,0,0.1234,0.4483,0.0429,0.0076,0.2556,0
2004/9/2 13:15,0,0,0,0.1221,0.4202,0.056,0.0078,0.2727,0
2004/9/2 13:30,0,0,0,0.1277,0.0566,0.4935,0.0078,0.6941,0
2004/9/2 13:45,0,0,0,0.1236,0.4706,0.4926,0.0076,0.7692,0
2004/9/2 14:00,0,0,0,0.1256,0.4584,0.4481,0.052,0.7538,0
2004/9/2 14:15,0,0,0,0.1212,0.4366,0.4586,0.0078,0.7622,0
2004/9/2 14:30,0,0,0,0.125,0.4795,0.4978,0.0076,0.6965,0
2004/9/2 14:45,0.7206,0,0,0.1233,0.4532,0.1456,0.0078,0.6516,0
2004/9/2 15:00,2.9726,0,0,0.1259,0.0645,0.0428,0.0078,0.5351,0
2004/9/2 15:15,3.9381,0,0,0.1233,0.4543,0.0431,0.0078,0.528,0
2004/9/2 15:30,3.9407,0,0,0.1286,0.4163,0.0428,0.0076,0.5262,0
2004/9/2 15:45,3.2505,0,0,0.1244,0.0684,0.1499,0.0078,0.6705,0
2004/9/2 16:00,2.2798,0,0,0.1264,0.4078,0.1678,0.0564,0.5803,0
2004/9/2 16:15,2.1097,0,0,0.1241,0.3914,0.1665,0.0078,0.5822,0
2004/9/2 16:30,2.105,0,0,0.1279,0.0955,0.1644,0.0078,0.9939,0
2004/9/2 16:45,1.9525,0,0,0.1246,0.4196,0.2123,0.0078,0.9986,0
2004/9/2 17:00,1.8877,0,0,0.1259,0.4421,0.5579,0.0078,0.6228,0
2004/9/2 17:15,1.8547,0,0,0.1273,0.3959,0.5676,0.0076,0.6074,0
2004/9/2 17:30,1.6726,0,0,0.1261,0.0694,0.5563,0.0078,0.9132,0
2004/9/2 17:45,0.865,0,0,0.1279,0.4087,0.5305,0.0078,0.9202,0
2004/9/2 18:00,0,0,0,0.9851,0.3882,0.4422,0.0078,1.1573,0
2004/9/2 18:15,0,0,0,0.1299,0.4136,0.1996,0.0482,1.4027,0
2004/9/2 18:30,0,0,0,0.7479,0.4182,0.1993,0.0076,1.6694,0
2004/9/2 18:45,0,0,0,1.044,0.0991,0.1979,0.0078,1.4052,0
2004/9/2 19:00,0,0,0,0.7576,0.4038,0.197,0.0076,1.5839,0
2004/9/2 19:15,0,0,0,0.192,0.4447,0.3372,0.0078,1.5672,0
2004/9/2 19:30,0,0,0,2.5229,0.4248,0.5291,0.0078,1.7037,0
2004/9/2 19:45,0,0,0,0.8755,0.4825,0.5,0.0078,1.5448,0
2004/9/2 20:00,0,0,0,0.1601,0.2845,0.4944,0.0488,1.3008,0
2004/9/2 20:15,0,0,0,0.1545,0.2202,0.1881,0.0078,1.7052,0
2004/9/2 20:30,0,0,0,0.1538,0.4478,0.0426,0.0081,1.425,0
2004/9/2 20:45,0,0,0,0.1496,0.4203,0.0419,0.0078,1.6547,0
2004/9/2 21:00,0,0,0,0.1503,0.4635,0.042,0.0076,1.7415,0
2004/9/2 21:15,0,0,0,0.1472,0.3866,0.0422,0.0078,1.6655,0
2004/9/2 21:30,0,0,0,0.1683,0.1158,0.0423,0.0433,1.605,0
2004/9/2 21:45,0,0,0,0.177,0.4406,0.042,0.0076,1.672,0
2004/9/2 22:00,0,0,0,0.1824,0.4219,0.042,0.0076,1.4315,0
2004/9/2 22:15,0,0,0,0.1778,0.4396,0.042,0.0078,1.8982,0
2004/9/2 22:30,0,0,0,0.1835,0.3823,0.0422,0.0076,2.0569,0
2004/9/2 22:45,0,0,0,0.1868,0.13,0.0425,0.0078,1.567,0
2004/9/2 23:00,0,0,0,0.1848,0.4434,0.0425,0.0534,1.2479,0
2004/9/2 23:15,0,0,0,0.1833,0.342,0.0423,0.0076,1.1389,0
2004/9/2 23:30,0,0,0,0.486,0.1315,0.0425,0.0078,1.0332,0
2004/9/2 23:45,0,0,0,0.1885,0.4476,0.0428,0.0078,1.0204,0
2004/9/3 0:00,0,0,0,0.1899,0.4157,0.2883,0.0076,1.0342,0
2004/9/3 0:15,0,0,0,0.1927,0.4548,0.4103,0.0078,1.1622,0
2004/9/3 0:30,0,0,0,0.1878,0.2298,0.4175,0.0078,1.4861,0
2004/9/3 0:45,0,0,0,0.1901,0.2805,0.3956,0.0429,1.0525,0
2004/9/3 1:00,0,0,0,0.1884,0.4535,0.0432,0.0078,0.6718,0
2004/9/3 1:15,0,0,0,0.1886,0.3383,0.0435,0.0076,0.4546,0
2004/9/3 1:30,0,0,0,0.1848,0.1001,0.0422,0.0078,0.3797,0
2004/9/3 1:45,0,0,0,0.3619,0.4123,0.0425,0.0078,0.9638,0
2004/9/3 2:00,0,0,0,0.4015,0.4022,0.0426,0.0078,0.9098,0
2004/9/3 2:15,0,0,0,0.3089,0.1963,0.0426,0.057,0.2815,0
2004/9/3 2:30,0,0,0,0.1515,0.2752,0.0426,0.0078,0.4068,0
2004/9/3 2:45,0,0,0,0.1558,0.4018,0.0428,0.0078,0.3995,0
2004/9/3 3:00,0,0,0,0.1967,0.3139,0.0429,0.0078,0.5063,0
2004/9/3 3:15,0,0,0,0.2066,0.1643,0.0428,0.0078,0.6091,0
2004/9/3 3:30,0,0,0,0.2172,0.4563,0.0428,0.0078,0.5072,0
2004/9/3 3:45,0,0,0,0.2091,0.4241,0.0429,0.0078,0.4065,0
2004/9/3 4:00,0,0,0,0.2177,0.4637,0.0428,0.055,0.54,0
2004/9/3 4:15,0,0,0,0.2115,0.3652,0.0431,0.0078,0.4344,0
2004/9/3 4:30,0,0,0,0.2183,0.5704,0.0429,0.0078,0.5361,0
2004/9/3 4:45,0,0,0,0.216,0.57,0.0431,0.0078,0.3787,0
2004/9/3 5:00,0,0,0,0.2163,0.5232,0.0431,0.0078,0.3852,0
2004/9/3 5:15,0,0,0,0.2097,0.5373,0.0431,0.0078,0.3862,0
2004/9/3 5:30,0,0,0,0.2144,0.5365,0.0432,0.0078,0.3802,0
2004/9/3 5:45,0,0,0,0.2159,0.5086,0.0431,0.0586,0.3905,0
2004/9/3 6:00,0,0,0,0.215,0.5167,0.0432,0.0079,0.3768,0
2004/9/3 6:15,0,0,0,0.2156,0.4804,0.0431,0.0078,0.3797,0
2004/9/3 6:30,0,0,0,0.2115,0.5023,0.0429,0.0078,0.3812,0
2004/9/3 6:45,0,0,0,0.2213,0.307,0.0547,0.0078,0.4494,0
2004/9/3 7:00,0,0,0,0.8814,0.1224,0.4212,0.0078,0.9395,0
2004/9/3 7:15,0,0,0,1.4168,0.4536,0.4357,0.0802,1.2969,0
2004/9/3 7:30,0,0,0,1.5677,0.4221,0.4111,0.578,1.1343,0
2004/9/3 7:45,0,0,0,0.2403,0.0645,0.4202,0.5237,1.5728,0
2004/9/3 8:00,0,0,0,1.9996,0.4663,0.4252,0.5625,1.5523,0
2004/9/3 8:15,0,0,0,0.0442,0.431,0.4176,0.3385,1.5365,0
2004/9/3 8:30,0,0,0,0.0711,0.4398,0.4244,0.0081,1.2092,0
2004/9/3 8:45,0,0,0,0.1032,0.4598,0.3763,0.0507,1.0744,0
2004/9/3 9:00,0,0,0,0.1584,0.0736,0.4321,0.0079,0.973,0
2004/9/3 9:15,0,0,0,0.1722,0.433,0.4317,0.0076,0.4915,0
2004/9/3 9:30,0,0,0,0.1781,0.4225,0.2585,0.0078,0.472,0
2004/9/3 9:45,0,0,0,0.1814,0.4486,0.0431,0.0078,0.3616,0
2004/9/3 10:00,0,0,0,0.181,0.2637,0.0426,0.0076,0.347,0
2004/9/3 10:15,0,0,0,0.1816,0.2442,0.0426,0.0078,0.2883,0
2004/9/3 10:30,0,0,0,0.178,0.4416,0.0429,0.0504,0.3167,0
2004/9/3 10:45,0,0,0,0.1845,0.3645,0.0428,0.0078,0.3061,0
2004/9/3 11:00,0,0,0,0.18,0.1077,0.0429,0.0076,0.2619,0
2004/9/3 11:15,0,0,0,0.183,0.4506,0.0428,0.0078,0.2521,0
2004/9/3 11:30,0,0,0,0.1812,0.3488,0.0426,0.0078,0.5149,0
2004/9/3 11:45,0,0,0,0.1812,0.1421,0.0425,0.0078,0.591,0
2004/9/3 12:00,0,0,0,0.1823,0.4566,0.0431,0.0492,0.7471,0
2004/9/3 12:15,0,0,0,0.1788,0.4154,0.0513,0.0078,0.2534,0
2004/9/3 12:30,0,0,0,0.1866,0.4563,0.0426,0.0078,0.2521,0
2004/9/3 12:45,0,0,0,0.1748,0.2366,0.0428,0.0076,0.2364,0
2004/9/3 13:00,0,0,0,0.1807,0.2697,0.0426,0.0078,0.2388,0
2004/9/3 13:15,0,0,0,0.1801,0.4356,0.0541,0.0078,0.2497,0
2004/9/3 13:30,0,0,0,0.1819,0.0552,0.1094,0.0076,0.2412,0
2004/9/3 13:45,0,0,0,1.2275,0.3799,0.3617,0.0508,0.2441,0
2004/9/3 14:00,0,0,0,0.4844,0.3872,0.4369,0.0078,0.1404,0
2004/9/3 14:15,0,0,0,0.2447,0.4068,0.4753,0.0076,0.1945,0
2004/9/3 14:30,0,0,0,0.1486,0.4216,0.4739,0.0078,0.2578,0
2004/9/3 14:45,0,0,0,0.1765,0.0971,0.3673,0.0076,0.3426,0
2004/9/3 15:00,0,0,0,0.203,0.4113,0.0426,0.041,1.0873,0
2004/9/3 15:15,0,0,0,0.2064,0.4356,0.0423,0.1076,1.2653,0
2004/9/3 15:30,1.9306,0,0,0.2097,0.0858,0.0426,0.0078,1.2008,0
2004/9/3 15:45,3.5713,0,0,0.2143,0.4294,0.1679,0.0513,1.2924,0
2004/9/3 16:00,3.8426,0,0,0.2087,0.4431,0.4765,0.0079,1.0319,0
2004/9/3 16:15,3.4878,0,0,0.2102,0.4314,0.2634,0.0076,1.0165,0
2004/9/3 16:30,2.3021,0,0,0.2111,0.4644,0.0877,0.0078,1.0424,0
2004/9/3 16:45,2.0035,0,0,0.2098,0.1028,0.0877,0.0078,1.1759,0
2004/9/3 17:00,1.8721,0,0,0.2173,0.3993,0.0876,0.0076,1.2079,0
2004/9/3 17:15,1.8589,0,0,0.2114,0.427,0.0877,0.0078,1.1364,0
2004/9/3 17:30,1.8423,0,0,0.2088,0.1649,0.0876,0.0078,1.0087,0
2004/9/3 17:45,1.6942,0,0,0.2131,0.3334,0.0877,0.0503,1.0007,0
2004/9/3 18:00,1.6848,0,0,0.2115,0.4395,0.0873,0.0076,0.9948,0
2004/9/3 18:15,1.6871,0,0,0.2147,0.4133,0.0878,0.0076,0.9985,0
2004/9/3 18:30,1.7447,0,0,0.2133,0.4614,0.0876,0.0078,1.0381,0
2004/9/3 18:45,1.671,0,0,0.2157,0.437,0.0877,0.0078,1.0336,0
2004/9/3 19:00,1.6602,0,0,0.2143,0.1575,0.0876,0.0076,1.041,0
2004/9/3 19:15,1.6512,0,0,0.2092,0.3254,0.0871,0.0078,1.0522,0
2004/9/3 19:30,1.6672,0,0,0.221,0.4241,0.0876,0.0498,1.0551,0
2004/9/3 19:45,1.6695,0,0,0.2136,0.1289,0.0877,0.0078,1.0587,0
2004/9/3 20:00,1.6322,0,0,0.2238,0.36,0.0876,0.0078,1.0365,0
2004/9/3 20:15,1.6337,0,0,0.2123,0.4317,0.088,0.0078,1.0413,0
2004/9/3 20:30,1.6258,0,0,0.2159,0.1668,0.0878,0.0076,1.061,0
2004/9/3 20:45,1.6236,0,0,0.2161,0.3254,0.0883,0.0078,1.0613,0
2004/9/3 21:00,1.6181,0,0,0.216,0.4323,0.0883,0.0078,1.0578,0
2004/9/3 21:15,1.6181,0,0,0.214,0.194,0.0883,0.05,1.0565,0
2004/9/3 21:30,1.6137,0,0,0.2226,0.1534,0.088,0.0078,1.0499,0
2004/9/3 21:45,1.6092,0,0,0.2156,0.4025,0.0883,0.0082,1.2897,0
2004/9/3 22:00,1.6093,0,0,1.3078,0.3807,0.0876,0.0078,1.9308,0
2004/9/3 22:15,1.6049,0,0,2.2189,0.4147,0.0881,0.0078,1.949,0
2004/9/3 22:30,1.6032,0,0,0.1261,0.4221,0.088,0.0078,1.7843,0
2004/9/3 22:45,1.5944,0,0,0.1306,0.1892,0.088,0.0078,1.8325,0
2004/9/3 23:00,1.5877,0,0,0.1273,0.3012,0.0877,0.0503,1.5576,0
2004/9/3 23:15,1.5853,0,0,0.1293,0.449,0.0878,0.0079,1.5139,0
2004/9/3 23:30,1.5754,0,0,0.1306,0.2419,0.0877,0.0078,0.8045,0
2004/9/3 23:45,1.3818,0,0,0.1284,0.203,0.3246,0.0078,1.1236,0
2004/9/4 0:00,0.6739,0,0,0.1287,0.3996,0.4104,0.0076,1.2298,0
2004/9/4 0:15,0,0,0,0.9605,0.2295,0.3947,0.0078,1.5733,0
2004/9/4 0:30,0,0,0,0.1289,0.2395,0.3964,0.0078,1.5395,0
2004/9/4 0:45,0,0,0,0.1284,0.4513,0.4116,0.0487,1.4361,0
2004/9/4 1:00,0,0,0,0.1267,0.4156,0.4044,0.0078,1.6995,0
2004/9/4 1:15,0,0,0,0.1273,0.1848,0.4103,0.0078,1.7024,0
2004/9/4 1:30,0,0,0,0.1293,0.2832,0.4162,0.0078,1.4949,0
2004/9/4 1:45,0,0,0,0.1279,0.408,0.415,0.0079,1.2532,0
2004/9/4 2:00,0,0,0,0.1287,0.3763,0.4441,0.0076,1.0639,0
2004/9/4 2:15,0,0,0,0.1256,0.4271,0.0563,0.039,0.9225,0
2004/9/4 2:30,0,0,0,0.132,0.3613,0.0426,0.0078,0.2828,0
2004/9/4 2:45,0,0,0,0.1287,0.1189,0.0425,0.0076,0.2796,0
2004/9/4 3:00,0,0,0,0.1279,0.445,0.0426,0.0078,0.293,0
2004/9/4 3:15,0,0,0,0.1287,0.419,0.0429,0.0078,0.2893,0
2004/9/4 3:30,0,0,0,0.1263,0.449,0.0426,0.0518,0.282,0
2004/9/4 3:45,0,0,0,0.1322,0.377,0.0428,0.0078,0.2807,0
2004/9/4 4:00,0,0,0,0.1302,0.5697,0.0429,0.0078,0.288,0
2004/9/4 4:15,0,0,0,0.1279,0.5187,0.0429,0.0078,0.2881,0
2004/9/4 4:30,0,0,0,0.1306,0.5678,0.0429,0.0078,0.3537,0
2004/9/4 4:45,0,0,0,0.1282,0.5363,0.0432,0.0078,0.5193,0
2004/9/4 5:00,0,0,0,0.1276,0.5302,0.0431,0.0078,0.7556,0
2004/9/4 5:15,0,0,0,0.128,0.5136,0.0431,0.0567,0.5522,0
2004/9/4 5:30,0,0,0,0.1306,0.5049,0.0431,0.0078,0.5629,0
2004/9/4 5:45,0,0,0,0.1264,0.4941,0.0432,0.0079,0.5628,0
2004/9/4 6:00,0,0,0,0.1287,0.4896,0.0431,0.0078,0.558,0
2004/9/4 6:15,0,0,0,0.1309,0.1591,0.0432,0.0078,0.5717,0
2004/9/4 6:30,0,0,0,0.1297,0.2748,0.0431,0.0078,0.562,0
2004/9/4 6:45,0,0,0,0.1264,0.4422,0.0426,0.0078,0.5584,0
2004/9/4 7:00,0,0,0,0.1306,0.3426,0.0431,0.0076,0.5623,0
2004/9/4 7:15,0,0,0,0.127,0.0314,0.0588,0.0534,0.5557,0
2004/9/4 7:30,0,0,0,0.1332,0.3977,0.0445,0.0078,0.5628,0
2004/9/4 7:45,0,0,0,0.1266,0.3891,0.0428,0.0076,0.5623,0
2004/9/4 8:00,0,0,0,0.1295,0.0878,0.0431,0.0078,0.5659,0
2004/9/4 8:15,0,0,0,0.1322,0.3684,0.0431,0.0078,0.5576,0
2004/9/4 8:30,0,0,0,0.1287,0.3858,0.0431,0.0078,0.5675,0
2004/9/4 8:45,0,0,0,0.132,0.0793,0.1968,0.4404,0.6077,0
2004/9/4 9:00,0,0,0,0.1269,0.3751,0.4128,0.6054,0.724,0
2004/9/4 9:15,0,0,0,0.2046,0.3921,0.4051,0.4769,0.8071,0
2004/9/4 9:30,0,0,0,2.3246,0.3872,0.3766,0.3401,0.9462,0
2004/9/4 9:45,0,0,0,0.1286,0.4271,0.4324,0.0078,1.0208,0
2004/9/4 10:00,0,0,0,0.129,0.1862,0.4205,0.0076,0.9613,0
2004/9/4 10:15,0,0,0,0.1312,0.3031,0.4559,0.0078,0.9145,0
2004/9/4 10:30,0,0,0,0.1283,0.435,0.4843,0.0076,0.9168,0
2004/9/4 10:45,0,0,0,2.3458,0.2513,0.4836,0.0477,0.953,0
2004/9/4 11:00,0,0,0,0.1279,0.2333,0.3437,0.0078,1.0601,0
2004/9/4 11:15,0,0,0,0.1273,0.4486,0.2346,0.0081,1.3565,0
2004/9/4 11:30,0,0,0,0.1295,0.2316,0.2327,0.0406,1.0214,0
2004/9/4 11:45,0,0,0,0.1257,0.2704,0.2209,0.0084,1.0693,0
2004/9/4 12:00,0,0,0,0.1297,0.4536,0.2091,0.0078,1.0464,0
2004/9/4 12:15,0,0,0,0.1282,0.4179,0.2042,0.0078,1.0479,0
2004/9/4 12:30,0,0,0,0.1259,0.4647,0.2033,0.0078,1.0488,0
2004/9/4 12:45,0,0,0,0.1303,0.2038,0.2026,0.0504,1.0482,0
2004/9/4 13:00,0,0,0,0.1254,0.303,0.2043,0.0078,1.0395,0
2004/9/4 13:15,0,0,0,0.1309,0.434,0.2179,0.0078,1.1336,0
2004/9/4 13:30,0,0,0,0.1309,0.0444,0.2123,0.0078,0.955,0
2004/9/4 13:45,0,0,0,0.1237,0.4127,0.2287,0.0078,0.4978,0
2004/9/4 14:00,0,0,0,0.126,0.3535,0.2288,0.0078,0.6961,0
2004/9/4 14:15,0,0,0,0.1331,0.067,0.174,0.0078,0.687,0
2004/9/4 14:30,0,0,0,1.6648,0.4192,0.1611,0.0514,1.11,0
2004/9/4 14:45,0,0,0,0.122,0.3884,0.1568,0.0079,0.7632,0
2004/9/4 15:00,0,0,0,0.1274,0.4316,0.1551,0.0076,0.8811,0
2004/9/4 15:15,0,0,0,0.1263,0.435,0.1555,0.0078,2.035,0
2004/9/4 15:30,0,0,0,0.1289,0.4556,0.0634,0.0078,1.585,0
2004/9/4 15:45,0,0,0,0.1254,0.452,0.0431,0.0079,2.0144,0
2004/9/4 16:00,0,0,0,0.1289,0.492,0.0428,0.0078,1.2456,0
2004/9/4 16:15,0,0,0,0.1303,0.1731,0.0432,0.0508,0.6373,0
2004/9/4 16:30,0,0,0,0.1227,0.3469,0.0428,0.0078,0.6267,0
2004/9/4 16:45,0,0,0,0.1243,0.4356,0.0426,0.0078,0.6155,0
2004/9/4 17:00,1.3543,0,0,0.4964,0.4196,0.0422,0.0078,1.2599,0
2004/9/4 17:15,1.5857,0,0,3.7424,0.0696,0.0422,0.0076,1.4472,0
2004/9/4 17:30,1.5638,0,0,1.6366,0.4516,0.0776,0.0078,1.3798,0
2004/9/4 17:45,1.5624,0,0,0.7528,0.4272,0.1293,0.0076,1.3451,0
2004/9/4 18:00,1.5546,0,0,0.1257,0.4487,0.0432,0.0511,0.7713,0
2004/9/4 18:15,1.5448,0,0,0.1283,0.2465,0.0431,0.0078,0.7841,0
2004/9/4 18:30,1.545,0,0,0.1277,0.2628,0.0429,0.0078,0.7271,0
2004/9/4 18:45,1.2404,0,0,0.1286,0.4425,0.0429,0.0078,0.6432,0
2004/9/4 19:00,0.9618,0,0,0.1243,0.4108,0.0431,0.0078,0.6594,0
2004/9/4 19:15,0.9737,0,0,0.1296,0.4608,0.0586,0.0078,0.6536,0
2004/9/4 19:30,0.4092,0,0,0.126,0.0927,0.0448,0.0537,0.6661,0
2004/9/4 19:45,0.0616,0,0,0.1246,0.4133,0.0433,0.0078,0.6646,0
2004/9/4 20:00,0.1413,0,0,0.1272,0.4152,0.0432,0.0079,0.6648,0
2004/9/4 20:15,0.1348,0,0,0.1302,0.4323,0.0426,0.0076,0.6558,0
2004/9/4 20:30,0.15,0,0,1.3261,0.4368,0.0432,0.0079,0.9808,0
2004/9/4 20:45,0.1027,0,0,0.9442,0.06,0.0431,0.0076,0.6391,0
2004/9/4 21:00,0.1594,0,0,0.6512,0.3364,0.0431,0.114,1.5175,0
2004/9/4 21:15,0.1348,0,0,1.9729,0.4507,0.0426,0.0861,1.3692,0
2004/9/4 21:30,0.144,0,0,0.1957,0.4231,0.0422,0.0076,1.0308,0
2004/9/4 21:45,0.0863,0,0,0.1947,0.4702,0.042,0.0078,1.1704,0
2004/9/4 22:00,0.1087,0,0,0.2049,0.2363,0.0419,0.0076,1.0259,0
2004/9/4 22:15,0.2972,0,0,0.2153,0.2756,0.0419,0.0079,1.8003,0
2004/9/4 22:30,0.0526,0,0,0.2154,0.445,0.042,0.0076,1.5896,0
2004/9/4 22:45,0.034,0,0,0.2023,0.414,0.0422,0.0549,1.3792,0
2004/9/4 23:00,0,0,0,0.2131,0.4523,0.0425,0.0078,1.0572,0
2004/9/4 23:15,0,0,0,0.2147,0.0301,0.0422,0.0076,1.0113,0
2004/9/4 23:30,0,0,0,0.2127,0.3846,0.0422,0.0078,0.9511,0
2004/9/4 23:45,0,0,0,0.2068,0.3642,0.4344,0.0076,0.9161,0
2004/9/5 0:00,0,0,0,0.7785,0.0302,0.4638,0.0078,1.079,0
2004/9/5 0:15,0,0,0,1.745,0.4087,0.4693,0.0076,0.9346,0
2004/9/5 0:30,0,0,0,0.0433,0.397,0.4699,0.0527,0.7815,0
2004/9/5 0:45,0,0,0,0.0752,0.3953,0.27,0.0078,0.6672,0
2004/9/5 1:00,0,0,0,0.1342,0.4153,0.0432,0.0078,0.6538,0
2004/9/5 1:15,0,0,0,0.1728,0.037,0.0431,0.0078,0.6424,0
2004/9/5 1:30,0,0,0,0.1801,0.4084,0.0428,0.0078,0.4866,0
2004/9/5 1:45,0,0,0,0.1824,0.362,0.0423,0.0076,0.2985,0
2004/9/5 2:00,0,0,0,0.1914,0.077,0.0425,0.0078,0.2745,0